Temperature
16 16 16 17 14 11 13 13 13 13 13 13 13 13 12 12 13 13 13 13 13 13 13 12 12 12 12 12 12 12 12 13 13 13 13 13 13 13 13 13 14 14 14 14 14 14 14 14 14
16 16 16 16 12 12 13 12 12 13 13 13 13 12 12 12 12 12 12 12 12 12 12 12 12 12 12 12 12 12 12 12 12 12 13 13 13 13 13 13 13 13 14 14 14 14 14 14 14
15 16 16 11 11 12 14 13 12 12 13 13 12 12 12 11 12 12 12 12 12 12 12 12 12 12 12 12 12 12 12 12 12 12 13 13 13 13 13 13 13 13 13 13 13 13 13 14 14
15 16 14 11 12 11 12 13 11 11 12 12 11 11 11 11 11 12 12 12 12 12 12 12 12 11 11 12 12 12 12 12 12 12 12 12 12 13 13 13 13 13 13 13 13 13 13 13 13
15 15 11 10 11 11 11 11 12 11 11 11 11 10 10 11 11 12 12 12 12 12 11 11 11 11 11 11 12 12 12 12 12 12 12 12 12 12 13 13 13 13 13 13 13 13 13 13 13
15 11 10 11 11 11 10 11 11 10 11 11 10 10 10 11 11 11 11 11 11 11 11 11 11 11 11 11 11 11 11 11 11 12 12 12 12 12 12 12 12 12 12 13 13 13 13 13 13
13 9 10 11 11 11 11 11 10 10 9 10 11 10 10 11 11 11 11 11 11 11 11 11 11 11 11 11 11 11 11 11 11 11 12 12 12 12 12 12 12 12 12 12 12 12 12 12 12
13 9 10 9 10 11 11 11 11 10 10 10 11 10 10 10 10 10 10 10 10 10 10 10 10 10 10 11 11 11 11 11 11 11 11 11 11 11 12 12 12 12 12 12 12 12 12 12 12
13 9 9 9 10 10 10 9 10 10 10 9 10 10 10 10 10 10 10 10 10 10 10 10 10 10 10 10 10 10 10 10 10 11 11 11 11 11 11 11 11 11 12 12 12 12 12 12 12
11 8 9 9 9 10 9 9 9 9 8 8 9 9 10 10 10 10 10 10 10 10 9 9 10 10 10 10 10 10 10 10 10 10 10 10 10 11 11 11 11 11 11 11 11 11 11 11 11
8 8 8 9 9 10 9 9 9 9 7 8 9 9 9 10 9 10 10 10 10 9 9 9 9 9 9 10 10 10 10 10 10 10 10 10 10 10 10 10 10 10 10 10 11 11 10 11 11
7 7 8 9 9 9 9 8 8 7 9 10 10 10 9 9 9 9 9 9 9 9 9 9 9 9 9 9 9 9 9 9 9 9 9 9 9 9 10 10 10 10 10 10 10 10 10 10 10
7 7 8 8 8 8 8 7 7 7 9 9 9 9 9 9 9 9 9 9 8 8 8 8 8 8 8 9 9 9 9 9 9 9 9 9 9 9 9 9 9 9 9 9 10 10 10 10 10
7 7 7 8 8 7 7 6 6 7 8 8 8 8 8 8 8 8 8 8 8 8 8 8 8 8 8 8 8 8 8 8 8 9 8 8 8 8 8 9 9 9 9 9 9 9 9 9 9
7 7 7 6 7 7 7 6 5 7 7 7 7 7 7 7 7 8 8 8 8 8 8 8 7 7 7 8 8 8 8 8 8 8 8 8 8 8 8 8 8 8 8 8 8 9 9 9 9
7 6 6 6 6 6 7 7 6 7 7 6 6 6 6 7 7 7 7 7 8 7 7 7 7 7 7 7 7 7 7 7 7 7 7 7 7 7 7 7 8 8 8 8 8 8 8 8 8
6 6 6 6 5 5 6 5 5 6 6 5 6 6 6 6 7 7 7 7 7 7 7 7 7 7 7 7 6 7 7 7 7 7 7 7 7 7 7 7 7 7 7 7 7 7 7 8 8
6 6 6 6 5 4 4 4 4 5 5 5 5 5 5 6 6 7 7 6 6 6 6 6 6 6 6 6 6 6 6 6 6 6 6 6 6 6 6 6 6 7 7 7 7 7 7 7 7
6 5 5 5 4 4 3 3 4 4 3 3 4 4 5 5 6 6 6 6 6 6 6 5 6 6 6 5 5 5 6 6 6 6 6 6 6 6 6 6 6 6 6 6 6 6 6 6 6
5 5 4 4 4 4 3 3 3 3 2 3 3 3 4 5 5 6 6 6 5 5 5 5 5 5 5 5 5 5 5 5 5 5 5 5 5 5 5 5 5 5 5 6 6 6 6 6 6
5 4 4 4 3 3 3 3 3 3 3 3 3 3 4 4 5 5 5 5 5 5 5 5 5 5 5 4 4 4 4 4 5 5 5 5 5 5 5 5 5 5 5 5 5 5 5 5 5
5 4 4 3 3 2 2 3 3 2 2 2 2 3 3 4 4 4 4 5 5 5 5 4 4 4 4 4 4 4 4 4 4 4 4 4 4 4 4 4 4 4 4 4 4 4 4 5 5
3 3 3 3 2 1 1 1 2 1 2 2 2 2 3 3 3 4 4 4 4 4 4 4 4 4 4 3 3 3 4 4 4 4 4 4 4 4 4 3 3 4 4 4 4 4 4 4 4
2 2 2 1 1 2 1 1 2 1 1 1 1 2 2 3 3 3 3 3 4 4 4 3 3 3 3 3 3 3 3 3 3 3 3 3 3 3 3 3 3 3 3 3 3 3 3 3 3
2 2 2 2 1 2 1 1 1 1 0 0 0 1 2 2 2 3 3 3 3 3 3 3 3 3 3 3 3 2 2 2 2 2 3 3 3 3 3 3 2 2 2 3 3 3 3 3 3
1 2 3 3 2 1 0 1 1 0 -0 0 0 1 1 2 2 2 2 2 2 3 2 2 2 2 2 2 2 2 2 2 2 2 2 2 2 2 2 2 2 2 2 2 2 2 2 2 2
1 0 1 1 -0 0 0 -1 -0 -0 -1 -1 -1 0 1 1 1 1 1 2 2 2 2 2 2 2 2 2 2 2 1 1 1 1 1 1 1 1 1 1 1 1 1 1 1 2 2 2 2
0 -0 -1 0 1 2 1 -0 0 -0 -1 -1 -2 -1 -0 1 1 1 1 1 1 1 1 1 1 1 1 1 1 1 1 1 1 1 1 1 1 1 0 1 1 1 1 1 1 1 1 1 1
-1 -1 -1 -1 -1 0 1 1 -1 -1 -1 -2 -2 -1 -1 -0 0 0 0 0 1 1 1 1 1 1 1 1 0 0 0 -0 -0 -0 -0 -0 -0 -0 -0 -0 0 0 0 0 0 0 0 0 1
-2 -2 -2 -0 -1 -2 -1 -0 -2 -3 -3 -3 -3 -2 -2 -1 -1 -1 -1 -0 -0 0 0 0 0 -0 -0 -0 -0 -0 -1 -1 -1 -1 -1 -1 -1 -1 -1 -1 -1 -1 -0 -0 -0 -0 -0 -0 -0
Wind_Speed
6 3 2 4 5 4 3 4 3 2 2 1 2 3 5 5 4 3 1 1 2 2 2 3 6 8 8 9 9 9 9 9 10 11 11 11 11 11 12 12 12 13 13 13 14 14 13 14 14
2 2 5 5 5 2 5 4 4 3 3 3 3 3 3 1 1 1 0 1 1 3 3 2 6 8 9 9 9 9 9 10 10 11 11 11 11 11 11 12 12 12 13 13 13 13 13 13 14
1 3 5 5 4 6 5 3 5 1 3 2 2 2 1 1 1 2 1 0 3 4 4 3 7 8 9 9 9 9 9 9 10 11 11 11 11 11 12 12 12 12 12 13 12 12 13 13 13
3 5 5 4 5 5 4 2 3 3 2 2 3 1 0 2 0 1 2 3 4 4 4 4 7 8 8 9 9 9 8 9 9 10 10 10 11 11 11 12 12 11 12 12 12 11 12 12 12
4 5 3 1 5 4 2 1 3 3 2 1 3 2 1 2 3 4 4 4 4 4 4 4 6 7 8 8 8 8 8 8 9 9 9 10 10 11 11 11 12 11 11 11 11 11 10 11 11
4 4 3 5 6 3 2 1 3 2 1 2 3 3 2 2 3 3 4 4 4 5 5 5 5 7 7 7 8 8 8 8 8 9 9 9 10 10 10 11 11 11 11 10 10 10 10 10 10
5 4 4 5 4 4 2 2 4 3 3 3 4 4 1 0 1 4 4 5 5 6 6 6 5 6 7 7 7 7 8 8 8 8 9 9 10 10 10 10 10 10 10 11 10 10 10 9 9
5 5 3 3 4 4 2 3 1 4 3 1 4 5 3 2 4 5 5 5 5 5 5 5 6 6 7 6 7 7 8 8 8 8 9 10 10 10 10 10 10 10 10 10 10 10 10 9 9
4 3 4 5 6 4 2 2 0 1 3 2 1 1 1 6 7 6 4 3 3 3 4 5 5 6 6 6 7 7 7 8 8 8 9 9 9 9 9 9 9 10 10 9 10 10 10 9 9
4 4 6 3 4 3 2 3 3 3 2 0 1 3 5 8 8 7 5 4 2 1 1 3 4 4 6 6 6 7 7 7 8 8 8 8 8 8 8 9 9 9 9 9 9 10 10 10 9
4 5 3 2 1 1 2 1 2 5 3 5 5 4 6 6 6 6 5 5 4 3 2 2 3 3 4 4 5 5 6 6 7 7 7 7 7 7 7 7 8 8 9 9 9 10 9 9 8
3 2 1 1 1 1 2 2 1 3 5 2 4 6 8 8 8 8 7 5 3 3 2 1 2 3 3 4 4 5 4 5 5 5 6 6 5 5 5 6 6 6 6 7 7 7 8 8 8
3 1 0 0 1 1 1 1 2 3 3 1 5 7 7 8 7 5 4 4 3 3 2 1 2 2 3 3 3 4 3 3 4 4 4 5 4 3 4 4 5 5 5 5 5 5 6 7 7
2 1 1 1 0 0 1 2 1 5 1 2 4 5 6 7 6 4 4 4 5 4 3 2 2 2 3 3 2 3 3 3 4 4 3 4 4 4 3 3 4 4 4 4 4 4 4 4 5
2 1 3 1 1 1 1 5 5 4 2 2 3 3 4 4 4 6 7 6 6 5 4 3 3 2 2 2 3 3 3 3 3 3 3 4 4 4 3 3 2 3 3 4 5 5 5 4 4
2 1 2 3 1 1 3 8 5 1 3 3 3 2 3 3 4 5 5 5 4 4 4 4 3 2 2 2 2 3 3 3 2 3 3 3 3 3 3 2 2 2 3 4 3 3 3 3 2
1 2 4 3 1 1 4 7 5 1 4 4 4 4 4 4 4 4 4 4 4 5 5 4 3 3 2 2 2 3 3 3 2 3 2 2 3 3 3 2 2 3 3 3 2 2 1 2 2
5 4 4 4 2 1 4 7 7 3 4 5 5 5 4 5 6 4 4 4 3 3 4 4 3 3 2 2 2 2 2 2 2 2 2 2 2 3 3 2 2 3 2 2 2 2 2 1 1
4 4 4 3 1 1 6 8 8 5 3 5 5 5 5 6 5 2 3 3 3 3 4 4 4 3 3 2 2 2 1 1 0 1 1 2 2 3 3 2 2 2 2 2 2 1 1 2 1
3 4 4 3 1 2 4 8 7 5 4 4 5 5 5 4 3 2 2 3 3 4 4 4 5 4 4 3 2 1 1 2 1 0 0 1 2 2 3 2 2 2 1 2 2 2 1 1 1
5 6 5 4 3 2 3 6 5 3 2 3 3 4 4 4 4 3 2 3 3 4 5 4 4 4 4 3 2 1 1 1 1 1 1 1 1 2 2 3 2 2 2 2 2 2 2 1 0
7 4 4 3 1 4 0 5 6 4 4 4 4 4 4 3 3 3 3 3 4 5 4 4 4 3 3 3 4 4 3 2 3 2 2 1 2 2 2 2 3 2 2 2 2 2 1 2 2
3 1 2 3 3 3 1 3 7 2 4 5 5 5 5 4 4 4 3 4 4 3 3 3 3 3 3 3 5 5 4 3 1 2 2 2 1 2 2 3 2 2 2 3 2 2 2 2 2
2 2 3 2 2 5 6 5 7 4 5 5 5 5 5 5 4 4 2 1 1 1 2 3 3 3 3 4 4 5 5 4 2 2 3 2 2 2 2 3 3 3 3 3 3 3 3 3 2
2 3 2 2 1 6 3 4 8 5 3 4 6 6 5 4 3 3 2 1 1 1 1 2 3 3 3 3 4 4 5 4 5 4 4 3 3 2 3 3 3 3 3 4 4 3 4 4 3
2 4 5 5 5 4 1 6 6 3 2 3 3 4 5 4 4 3 3 2 2 2 1 2 3 3 3 4 4 4 4 3 3 4 3 4 4 4 3 4 4 4 4 4 4 3 3 3 4
2 2 2 3 0 3 5 5 5 2 4 5 5 5 6 5 5 4 3 2 2 2 2 3 3 3 3 4 4 4 4 3 4 3 3 3 3 3 4 4 4 4 5 4 4 4 4 3 4
1 3 3 3 3 4 5 4 4 4 5 6 6 6 6 5 5 5 4 3 2 2 2 2 2 3 3 3 3 3 4 4 3 3 4 4 4 4 4 4 4 4 4 4 4 4 4 4 4
1 2 2 2 3 4 4 5 3 3 3 4 6 6 6 6 5 5 4 3 3 2 2 1 1 1 1 2 3 3 3 3 3 4 4 4 3 4 5 5 5 5 5 4 4 5 5 5 5
2 3 3 3 4 3 3 6 2 1 3 3 6 6 6 6 5 5 4 4 3 3 2 2 1 1 2 2 2 2 2 2 3 4 4 3 3 4 4 5 5 5 5 5 5 5 5 6 6
Wind_Direction
352 17 66 60 61 57 231 240 217 200 197 172 116 132 146 151 160 184 345 65 70 115 154 162 135 124 116 110 104 98 92 90 88 85 82 79 77 74 73 73 75 74 74 75 74 75 80 81 81
358 41 57 64 103 190 254 232 214 209 169 126 78 85 102 138 46 93 26 308 58 111 117 124 127 120 115 113 107 101 95 91 88 87 83 80 78 75 73 72 74 74 72 75 75 74 78 82 82
50 49 85 87 140 194 223 216 204 171 129 127 101 53 115 159 152 182 263 110 77 86 95 114 125 120 113 114 110 105 99 93 89 89 85 82 81 78 74 71 71 74 72 71 74 75 77 81 82
82 53 60 96 211 222 217 214 170 138 104 90 126 95 43 28 251 190 93 92 92 76 81 105 120 118 113 113 114 108 102 97 91 88 88 85 82 79 75 71 70 73 74 72 72 76 79 80 81
59 82 85 232 238 246 246 245 156 150 163 138 141 152 207 16 43 86 96 94 101 79 76 98 119 116 112 111 109 106 103 100 95 90 89 88 84 80 77 72 69 69 71 71 69 73 80 79 78
63 77 124 224 242 255 251 211 150 149 157 137 145 153 198 49 72 96 96 94 86 81 72 82 113 113 108 107 107 103 100 99 96 92 88 89 86 81 76 73 70 67 65 67 69 69 75 79 76
116 120 184 206 234 252 233 157 156 172 184 203 172 158 214 58 97 108 97 89 79 75 66 59 72 96 103 100 98 98 95 94 93 91 88 88 84 79 74 71 68 66 65 63 65 68 70 76 75
129 124 173 206 212 240 209 153 162 165 197 116 141 164 225 205 125 103 92 86 77 66 60 59 61 72 80 89 94 93 92 90 87 86 84 81 78 74 70 67 67 64 63 62 61 63 67 69 72
98 108 204 209 200 226 171 155 71 82 106 84 89 100 11 122 119 107 92 79 82 73 54 56 61 68 76 82 86 85 88 87 83 80 80 80 75 71 64 63 65 62 61 60 60 62 62 63 67
107 183 216 209 194 184 162 173 167 119 110 197 333 39 90 117 130 134 137 147 141 130 73 51 58 71 80 85 83 77 77 80 80 79 79 78 76 73 70 62 59 58 58 59 58 58 58 58 63
150 192 207 229 220 167 160 174 152 150 209 220 207 172 136 136 147 158 165 169 173 164 139 73 59 82 87 88 92 86 84 82 80 81 81 81 77 72 68 60 51 51 54 53 53 53 54 58 64
156 241 198 246 172 154 179 167 156 184 219 210 180 148 148 160 175 182 182 179 163 157 162 116 77 86 95 99 99 96 87 86 85 88 90 87 79 68 64 61 53 50 53 55 53 54 53 56 61
192 226 143 75 80 99 93 164 206 243 257 65 107 131 159 176 188 189 178 164 158 171 177 169 111 97 106 102 99 95 92 94 98 95 96 103 93 81 71 64 58 54 58 61 60 59 56 53 55
189 186 261 305 227 195 158 274 227 254 239 129 137 163 182 189 189 177 175 181 186 188 186 178 148 118 113 106 103 102 105 108 105 98 98 108 110 103 88 77 64 53 56 61 67 65 63 53 54
111 44 328 294 217 206 133 292 237 240 139 161 187 191 197 207 196 200 199 194 194 191 180 178 168 127 114 119 123 117 116 119 113 110 112 110 115 116 105 96 78 58 65 68 67 59 59 51 47
84 82 277 276 182 206 164 257 256 190 153 209 227 223 221 227 220 221 209 200 191 179 180 186 171 147 134 123 127 123 127 126 118 117 120 122 127 123 110 103 91 79 85 81 78 66 52 40 35
54 230 241 277 205 163 190 249 261 186 170 215 235 236 235 241 246 237 216 204 194 182 179 182 171 165 153 129 130 126 125 125 121 113 115 132 137 133 121 113 103 105 94 86 87 65 65 55 36
219 220 234 236 262 173 224 252 279 263 206 232 243 245 241 242 246 237 216 203 191 180 174 176 174 160 135 119 103 102 93 90 104 115 129 134 138 138 131 121 104 109 102 94 90 88 62 61 45
180 197 237 250 303 229 240 260 270 273 244 252 257 252 249 250 259 231 200 184 167 169 172 179 180 168 150 159 163 164 178 166 60 101 128 141 145 148 140 127 118 115 128 138 125 99 91 46 36
208 231 249 283 335 267 274 273 263 255 238 235 242 249 253 269 292 265 203 177 184 189 190 189 192 185 182 187 185 184 170 179 193 150 126 155 161 158 161 147 154 150 137 127 133 112 113 71 50
233 223 234 251 328 1 329 297 270 269 261 279 273 253 257 255 258 253 223 207 202 204 202 203 204 196 192 174 136 125 101 102 140 188 220 248 201 175 168 173 166 164 163 173 176 171 154 179 237
242 231 218 213 265 280 15 287 276 272 288 286 287 285 278 272 261 255 237 222 220 221 210 202 198 193 188 176 170 170 183 204 214 207 216 246 217 197 185 182 179 176 180 193 202 195 199 177 194
215 213 191 184 182 280 261 231 280 290 279 277 277 276 277 273 260 254 246 229 227 216 202 197 191 189 183 187 189 188 197 201 189 179 189 210 236 215 202 195 189 191 198 201 203 204 205 205 195
159 89 73 79 113 260 230 199 272 245 243 274 279 285 287 287 281 274 270 235 226 197 186 178 185 196 189 188 192 197 198 188 177 202 203 215 225 236 219 208 203 204 204 204 206 204 206 207 202
75 108 18 336 279 251 186 200 252 255 241 250 277 296 301 298 292 288 289 268 246 220 201 185 189 207 205 197 201 205 203 197 197 211 214 213 222 232 228 223 215 218 216 209 199 205 210 207 204
207 167 180 216 236 273 213 229 249 270 294 307 301 309 328 324 319 304 291 271 247 229 221 211 207 217 208 207 214 210 205 205 214 216 224 223 226 230 229 220 220 222 218 213 200 211 219 210 211
146 201 188 150 163 268 260 275 295 330 345 349 346 346 338 330 329 323 316 316 299 266 240 226 219 225 221 217 212 208 206 209 219 220 224 234 235 237 226 223 223 222 217 212 206 218 218 217 218
135 149 115 152 200 256 284 269 258 299 314 329 337 337 325 328 334 335 333 325 317 302 293 259 226 225 222 216 215 219 212 218 226 224 227 236 241 233 226 227 226 225 223 216 216 218 223 220 227
96 115 138 154 173 189 262 270 235 235 290 303 307 319 321 322 324 324 325 328 326 335 335 322 284 260 244 231 226 214 215 223 224 228 233 235 246 239 228 227 226 225 225 222 220 224 221 222 229
184 186 161 182 236 200 216 266 287 260 308 309 313 323 329 325 324 326 328 338 345 342 342 337 331 293 272 259 240 231 224 227 231 240 244 241 242 246 238 229 226 225 225 220 220 226 229 225 229
Height
1495 1496 1498 1501 1505 1517 1517 1512 1508 1507 1507 1507 1507 1508 1509 1511 1515 1519 1515 1513 1515 1518 1520 1522 1524 1525 1526 1527 1529 1530 1531 1532 1533 1534 1534 1535 1536 1536 1537 1538 1538 1539 1539 1540 1540 1541 1541 1542 1542
1495 1497 1500 1500 1511 1521 1517 1509 1507 1505 1505 1506 1506 1507 1508 1510 1511 1512 1512 1513 1515 1518 1519 1521 1523 1525 1526 1527 1528 1530 1531 1532 1533 1534 1535 1535 1536 1537 1537 1538 1539 1539 1540 1540 1541 1541 1542 1542 1543
1495 1497 1499 1503 1514 1515 1509 1504 1504 1504 1504 1505 1506 1507 1509 1510 1510 1511 1512 1513 1515 1517 1519 1521 1523 1525 1526 1527 1528 1529 1530 1532 1533 1534 1534 1535 1536 1537 1537 1538 1539 1539 1540 1541 1541 1542 1543 1543 1544
1496 1498 1500 1508 1510 1508 1504 1502 1502 1503 1504 1505 1506 1508 1509 1510 1510 1511 1512 1513 1515 1517 1519 1521 1523 1524 1526 1527 1528 1529 1530 1531 1532 1533 1534 1535 1536 1537 1538 1538 1539 1540 1540 1541 1542 1543 1543 1544 1544
1495 1496 1504 1511 1508 1504 1502 1501 1502 1503 1504 1505 1506 1507 1508 1510 1510 1511 1512 1513 1515 1517 1519 1521 1522 1524 1525 1526 1527 1529 1530 1531 1532 1533 1534 1535 1536 1537 1538 1538 1539 1540 1540 1541 1542 1543 1544 1544 1545
1495 1497 1509 1511 1506 1502 1501 1501 1501 1503 1504 1505 1506 1507 1507 1509 1509 1510 1512 1513 1515 1516 1518 1520 1522 1523 1525 1526 1527 1528 1529 1531 1532 1533 1534 1534 1535 1536 1537 1538 1539 1540 1540 1541 1542 1543 1544 1544 1545
1495 1501 1507 1507 1505 1502 1500 1500 1501 1502 1503 1504 1505 1506 1506 1507 1508 1510 1512 1513 1514 1516 1518 1520 1521 1523 1524 1525 1526 1527 1529 1530 1531 1532 1533 1534 1535 1536 1537 1538 1539 1539 1540 1541 1542 1543 1543 1544 1545
1493 1499 1504 1506 1504 1501 1499 1499 1500 1501 1502 1504 1504 1505 1505 1506 1507 1509 1511 1512 1514 1516 1517 1519 1520 1522 1523 1524 1525 1527 1528 1529 1530 1531 1532 1533 1534 1535 1536 1537 1538 1539 1540 1540 1541 1542 1543 1544 1545
1492 1502 1504 1502 1501 1499 1497 1498 1499 1500 1501 1502 1503 1504 1504 1505 1506 1508 1509 1511 1513 1514 1516 1518 1519 1521 1522 1523 1525 1526 1527 1528 1529 1530 1531 1532 1533 1534 1535 1536 1537 1538 1539 1540 1541 1542 1542 1543 1544
1492 1500 1498 1496 1496 1496 1496 1497 1498 1500 1501 1501 1502 1502 1502 1503 1504 1505 1507 1508 1510 1512 1514 1516 1518 1519 1521 1522 1523 1525 1526 1527 1528 1529 1530 1531 1532 1533 1534 1535 1536 1537 1538 1539 1540 1540 1541 1542 1543
1491 1495 1494 1494 1494 1494 1496 1497 1498 1498 1500 1499 1499 1499 1500 1501 1502 1504 1505 1507 1508 1511 1512 1514 1516 1517 1519 1520 1522 1523 1524 1526 1527 1528 1529 1530 1531 1532 1533 1534 1535 1536 1537 1537 1538 1539 1540 1541 1542
1492 1493 1493 1493 1493 1494 1495 1496 1498 1497 1497 1498 1498 1498 1498 1499 1500 1502 1503 1505 1507 1509 1510 1512 1514 1515 1517 1518 1520 1521 1523 1524 1525 1526 1527 1529 1530 1531 1532 1533 1534 1534 1535 1536 1537 1538 1539 1540 1541
1491 1492 1492 1493 1493 1494 1495 1495 1496 1495 1495 1496 1496 1496 1497 1498 1499 1501 1502 1504 1505 1507 1509 1510 1512 1513 1514 1516 1518 1519 1521 1522 1523 1524 1526 1527 1528 1529 1530 1531 1532 1533 1534 1534 1535 1536 1537 1538 1539
1490 1491 1492 1492 1492 1493 1494 1495 1496 1492 1494 1494 1494 1494 1495 1496 1497 1498 1500 1501 1502 1504 1506 1508 1509 1511 1512 1514 1516 1517 1519 1520 1521 1522 1523 1525 1526 1527 1528 1529 1530 1531 1532 1533 1534 1534 1535 1536 1537
1490 1492 1492 1491 1492 1493 1494 1495 1493 1491 1492 1492 1492 1492 1493 1494 1495 1496 1497 1498 1500 1502 1503 1505 1507 1509 1510 1512 1513 1515 1516 1518 1519 1520 1521 1522 1523 1525 1526 1527 1528 1529 1530 1531 1532 1532 1533 1534 1535
1490 1493 1495 1492 1491 1492 1496 1494 1490 1490 1490 1490 1490 1491 1491 1492 1493 1494 1495 1496 1498 1499 1501 1502 1504 1506 1508 1509 1511 1512 1514 1515 1517 1518 1519 1520 1521 1522 1523 1525 1526 1527 1528 1528 1529 1530 1531 1531 1532
1493 1495 1494 1492 1491 1492 1494 1492 1488 1488 1488 1488 1488 1489 1489 1489 1490 1491 1492 1494 1495 1497 1498 1500 1501 1503 1505 1507 1508 1510 1512 1513 1514 1515 1516 1517 1519 1520 1521 1522 1523 1524 1525 1526 1527 1528 1528 1529 1530
1493 1494 1493 1493 1491 1492 1493 1491 1487 1486 1487 1486 1486 1486 1487 1486 1487 1489 1490 1491 1493 1494 1496 1497 1499 1500 1502 1504 1505 1507 1508 1510 1511 1513 1514 1515 1516 1517 1519 1520 1521 1522 1522 1523 1524 1525 1526 1527 1528
1489 1491 1492 1492 1492 1493 1492 1491 1487 1485 1485 1484 1483 1483 1483 1483 1485 1486 1487 1488 1490 1491 1493 1494 1496 1497 1498 1500 1501 1502 1504 1506 1508 1510 1511 1512 1514 1515 1516 1517 1518 1519 1520 1520 1521 1522 1523 1524 1525
1489 1491 1493 1493 1493 1493 1493 1490 1484 1482 1482 1481 1480 1480 1480 1481 1481 1482 1484 1485 1486 1488 1489 1491 1492 1494 1495 1497 1498 1500 1501 1503 1505 1506 1508 1509 1511 1512 1513 1514 1515 1516 1517 1517 1518 1519 1520 1521 1522
1488 1491 1491 1494 1494 1494 1494 1488 1483 1480 1480 1479 1478 1478 1478 1478 1478 1480 1481 1482 1483 1484 1486 1488 1489 1491 1492 1494 1495 1497 1498 1499 1501 1502 1504 1505 1507 1508 1510 1511 1512 1512 1513 1514 1515 1516 1517 1518 1519
1487 1488 1489 1492 1496 1499 1497 1495 1483 1481 1479 1477 1476 1476 1475 1475 1476 1477 1477 1478 1480 1481 1483 1485 1486 1488 1489 1491 1492 1492 1493 1494 1496 1498 1500 1502 1503 1504 1506 1507 1508 1509 1510 1511 1512 1513 1514 1515 1516
1487 1488 1490 1492 1496 1501 1500 1500 1485 1481 1479 1476 1474 1473 1473 1473 1474 1474 1475 1475 1477 1479 1480 1482 1483 1485 1486 1488 1489 1489 1490 1492 1493 1495 1496 1498 1499 1500 1502 1503 1504 1505 1506 1507 1508 1509 1510 1511 1512
1487 1489 1492 1496 1498 1497 1496 1499 1486 1482 1478 1475 1473 1472 1471 1471 1472 1472 1473 1474 1475 1476 1477 1478 1480 1481 1483 1484 1485 1486 1487 1488 1489 1490 1492 1493 1495 1496 1498 1499 1500 1501 1502 1503 1504 1505 1507 1507 1508
1488 1491 1496 1496 1500 1493 1493 1495 1485 1477 1475 1474 1472 1471 1470 1470 1470 1470 1470 1471 1472 1473 1474 1475 1477 1478 1479 1480 1481 1482 1484 1485 1486 1486 1487 1489 1490 1491 1493 1495 1496 1497 1498 1499 1500 1502 1502 1503 1504
1490 1489 1492 1493 1493 1493 1494 1491 1481 1475 1474 1473 1472 1471 1469 1469 1469 1469 1469 1469 1469 1470 1471 1472 1473 1474 1475 1476 1477 1479 1480 1481 1482 1483 1483 1484 1485 1487 1488 1490 1491 1493 1494 1495 1496 1497 1498 1499 1500
1489 1491 1491 1496 1501 1500 1492 1489 1480 1474 1473 1472 1471 1470 1468 1468 1468 1467 1467 1468 1468 1468 1468 1469 1470 1471 1472 1472 1473 1474 1475 1476 1477 1478 1479 1480 1481 1482 1484 1485 1486 1487 1489 1490 1491 1492 1493 1494 1495
1489 1491 1495 1495 1493 1490 1488 1488 1481 1476 1474 1473 1471 1469 1468 1468 1467 1466 1466 1466 1466 1466 1467 1467 1467 1467 1468 1469 1469 1470 1471 1472 1473 1474 1474 1475 1476 1477 1478 1479 1481 1482 1483 1485 1486 1487 1488 1489 1490
1492 1493 1493 1496 1495 1494 1492 1485 1478 1476 1474 1474 1471 1470 1468 1467 1466 1465 1464 1464 1464 1464 1464 1464 1464 1465 1465 1465 1466 1466 1467 1468 1469 1469 1470 1470 1471 1472 1473 1474 1475 1476 1477 1479 1481 1482 1483 1484 1484
1491 1492 1494 1493 1494 1499 1496 1488 1475 1475 1474 1473 1471 1470 1468 1467 1466 1464 1463 1462 1461 1461 1461 1461 1461 1461 1462 1462 1462 1462 1463 1464 1464 1465 1465 1466 1466 1467 1467 1468 1469 1470 1472 1473 1475 1476 1477 1478 1479